Location: Azul
(36.7830°S, 59.8500°W)
Time: 21:07:25
(UTC-03:00)

ISS - Pass Details

Date: 16 February 2020
Orbit: 415 x 422 km, 51.6° (Epoch: 27 February)

Event Time Altitude Azimuth Distance (km) Brightness Sun altitude
Rises 20:25:42 0° 322° (NW) 2,361 0.3 -6.6°
Reaches altitude 10° 20:27:49 10° 326° (NNW) 1,503 -0.8 -7.0°
Maximum altitude 20:31:07 54° 44° (NE) 520 -3.6 -7.6°
Drops below altitude 10° 20:34:28 10° 122° (ESE) 1,517 -1.3 -8.3°
Sets 20:36:36 0° 127° (SE) 2,387 -0.2 -8.7°
